STARLINK-36389, 67806

Orbit data source: Space-Track

STARLINK-36389, 67806 is a payload satellite owned by SpaceX/Seattle (US) in SSO that was launched on Sun, 15 Feb 2026 UTC via an FALCON 9 launch vehicle from the Air Force Western Test Range (AFWTR). Payload-class satellites include a variety of spacecraft equipped with specific instruments for various scientific and technological missions. These include communications satellites like Starlink; space stations such as the ISS; scientific satellites like the Hubble; Earth observation satellites from companies like Planet Labs, Umbra, and HawkEye 360; GPS; miniature CubeSats for education and research; and military/defense satellites.

Loading next visibility...
Identifier
67806, 2026-032K
Orbit
SSO
Country
Flag of USUS
Related business
Manufacturer
SpaceX/Seattle
Mission
Operational Commercial Communications
Bus & Motor
STARLINK V2MO, Unknown motor
Mass
575 kg wet, ~530 kg dry
Launch date (UTC)
2026-02-15 (4 months ago)
Launch vehicle
FALCON 9
Launch site
Air Force Western Test Range (AFWTR)
Object type
Payload
Rocket body
Debris
Shape & HBR
Box + 2 Pan, 17.7 m
Radar Cross Section
36.964 m², Large (>1 m²)

Expand to show TLE details & history
Last TLE update: 21 hours ago

TLE from 21 hours ago
0 STARLINK-36389
1 67806U 26032K   26170.96777837  .00021485  00000-0  66571-3 0  9998
2 67806  97.2848 358.6697 0001401  93.8981 266.2422 15.33455913 20639
Epoch: 2026-06-19T23:13Z
TLE epoch observation values (Epoch: 2026-06-19T23:13:36.051Z)
Latitude
Longitude
102.08033°
Altitude
468.686 km
Speed
7.632 km/s
True Right ascension
23h 54m 40s
True Declination
0° 00' 00"
Sunlit
Object was in daylight at epoch
Visualization orbit readout
Latitude
Unknown
Longitude
Unknown
Altitude
Unknown
Speed
Unknown
Apparent Right ascension
Unknown
Apparent Declination
Unknown
Sunlit
N/A
Visualization observer readout
Local Sidereal Time
07:17:21
Azimuth
Unknown
Elevation
Unknown
Doppler factor
Unknown
Orbital elements
Apogee altitude
463.412 km
Perigee altitude
461.495 km
Semi-major axis
6,840.59 km
Eccentricity
0.00014
Inclination
97.2848°
RAAN
358.6697°
Arg. of periapsis
93.8981°
True anomaly
266.22618°
Mean anomaly
266.2422°
Eccentric anomaly
266.23419°
Mean motion
3.83621 °/min
Orbital period
93.84 mins
BSTAR
0.00066571
Loading maneuver chart data...
Computing Atmospheric mass density...
Loading historical data...
Loading historical data...
Loading historical data...
Loading historical data...
Loading historical data...
Loading historical data...
Loading historical data...

Documentation

Showing up to 5 results
|